Location: Barrio Las Umbrías
(40.4173°N, 4.8685°W)
Time: 11:55:45
(UTC+00:00)

CZ-4C R/B - Pass Details

Date: 17 August 2022
Orbit: 391 x 460 km, 97.7° (Epoch: 27 September)

Event Time Altitude Azimuth Distance (km) Brightness Sun altitude
Rises 20:01:58 0° 11° (N) 2,428 6.8 -9.2°
Reaches altitude 10° 20:04:01 10° 11° (N) 1,541 5.8 -9.6°
Maximum altitude 20:07:19 82° 284° (WNW) 432 2.8 -10.1°
Drops below altitude 10° 20:10:29 10° 196° (SSW) 1,485 5.4 -10.7°
Sets 20:12:26 0° 195° (SSW) 2,333 6.4 -11.0°
